TimeCST,TemperatureF,Dew PointF,Humidity,Sea Level PressureIn,VisibilityMPH,Wind Direction,Wind SpeedMPH,Gust SpeedMPH,PrecipitationIn,Events,Conditions,WindDirDegrees,DateUTC
12:52 AM,53.1,53.1,100,29.75,5.0,Calm,Calm,-,0.08,Rain,Light Rain,0,2011-11-26 06:52:00
1:52 AM,53.1,52.0,96,29.73,9.0,SW,6.9,-,0.02,Rain,Light Rain,230,2011-11-26 07:52:00
2:52 AM,52.0,51.1,97,29.75,10.0,Calm,Calm,-,0.02,Rain,Light Rain,0,2011-11-26 08:52:00
3:52 AM,52.0,50.0,93,29.75,10.0,WSW,4.6,-,0.03,Rain,Light Rain,240,2011-11-26 09:52:00
4:52 AM,52.0,48.9,89,29.80,10.0,NNW,8.1,-,0.00,,Overcast,330,2011-11-26 10:52:00
5:52 AM,44.6,37.4,76,29.88,10.0,NNW,12.7,20.7,N/A,,Overcast,340,2011-11-26 11:52:00
6:52 AM,44.1,37.0,76,29.90,10.0,North,9.2,21.9,0.00,,Overcast,360,2011-11-26 12:52:00
7:52 AM,43.0,35.1,74,29.94,10.0,North,11.5,31.1,0.00,,Overcast,350,2011-11-26 13:52:00
8:52 AM,42.1,34.0,73,30.00,10.0,North,12.7,29.9,N/A,,Overcast,350,2011-11-26 14:52:00
9:52 AM,44.1,34.0,68,30.05,10.0,North,11.5,24.2,N/A,,Overcast,360,2011-11-26 15:52:00
10:52 AM,45.0,34.0,65,30.05,10.0,North,12.7,25.3,N/A,,Mostly Cloudy,360,2011-11-26 16:52:00
11:52 AM,48.0,34.0,58,30.04,10.0,North,17.3,28.8,N/A,,Clear,360,2011-11-26 17:52:00
12:52 PM,48.9,30.9,50,30.05,10.0,NNW,16.1,27.6,N/A,,Clear,340,2011-11-26 18:52:00
1:52 PM,48.0,30.0,50,30.08,10.0,North,18.4,32.2,N/A,,Clear,360,2011-11-26 19:52:00
2:52 PM,48.0,28.9,48,30.11,10.0,North,10.4,25.3,N/A,,Partly Cloudy,350,2011-11-26 20:52:00
3:52 PM,48.0,27.0,44,30.14,10.0,North,9.2,23.0,N/A,,Clear,360,2011-11-26 21:52:00
4:52 PM,46.0,25.0,44,30.17,10.0,North,10.4,18.4,N/A,,Clear,350,2011-11-26 22:52:00
5:52 PM,44.1,18.0,35,30.21,10.0,NNW,13.8,24.2,N/A,,Clear,340,2011-11-26 23:52:00
6:52 PM,42.1,18.0,38,30.24,10.0,North,9.2,25.3,N/A,,Clear,350,2011-11-27 00:52:00
7:52 PM,39.9,17.1,40,30.26,10.0,North,9.2,16.1,N/A,,Clear,350,2011-11-27 01:52:00
8:52 PM,39.0,17.1,41,30.27,10.0,North,13.8,24.2,N/A,,Clear,350,2011-11-27 02:52:00
9:52 PM,37.0,19.9,50,30.27,10.0,North,10.4,16.1,N/A,,Clear,350,2011-11-27 03:52:00
10:52 PM,36.0,21.0,55,30.27,10.0,Variable,6.9,-,N/A,,Clear,0,2011-11-27 04:52:00
11:52 PM,34.0,21.0,59,30.29,10.0,Variable,4.6,-,N/A,,Clear,0,2011-11-27 05:52:00